Tracking 19146 objects as of 23-Apr-2018
HD Live streaming from Space Station
objects crossing your sky now

BREEZE-M R/B

Track BREEZE-M R/B now!


NORAD ID: 39164
Int'l Code: 2013-022B
Perigee: 5,748.0 km
Apogee: 34,343.4 km
Inclination: 17.6 °
Period: 712.2 minutes
Semi major axis: 26416 km
RCS: 15.2941 m2 (large)
Launch date: May 14, 2013
Source: Commonwealth of Independent States (former USSR) (CIS)
Launch site: TYURATAM MISSILE AND SPACE COMPLEX (TTMTR)

Note: This is a ROCKET BODY
aabbcc
Your satellite tracking list
Your tracking list is empty




NASA's NSSDC Master Catalog

Two Line Element Set (TLE):
1 39164U 13022B   18112.44576926 +.00000177 +00000-0 +00000-0 0  9992
2 39164 017.6190 242.8985 5412380 085.5179 331.4106 02.02202286036477
Source of the keplerian elements: AFSPC